Weather History for Toledo, OH

Change the Weather History Date:

Tuesday, April 23, 2013

  Actual Average Record
Temperature  
Mean Temperature 55 °F 52 °F  
Max Temperature 72 °F 63 °F 86 °F (1960)
Min Temperature 38 °F 41 °F 21 °F (1986)
Degree Days  
Heating Degree Days 10 13  
Month to date heating degree days 459 394  
Since 1 July heating degree days 5886 5820  
Cooling Degree Days 0 0  
Month to date cooling degree days 0 0  
Year to date cooling degree days 0 0  
Growing Degree Days 4 (Base 50)    
Moisture  
Dew Point 42 °F    
Average Humidity 61    
Maximum Humidity 93    
Minimum Humidity 29    
Precipitation  
Precipitation 0.34 in 0.11 in 1.03 in (1977)
Month to date precipitation 3.78 2.46  
Year to date precipitation 10.95 9.06  
Snow  
Snow 0.00 in 0.00 in - ()
Month to date snowfall 0.3 1.2  
Since 1 July snowfall 22.4 37.4  
Snow Depth 0.00 in    
Sea Level Pressure  
Sea Level Pressure 29.99 in    
Wind  
Wind Speed 8 mph (South)    
Max Wind Speed 23 mph    
Max Gust Speed 33 mph    
Visibility 8 miles    
Events Rain    
T = Trace of Precipitation, MM = Missing Value Source: NWS Daily Summary

Daily Weather History Graph

Daily Weather History Graph

Search for Another Location

Airport:

Trip Planner

Search our weather history database for the weather conditions in past years. The results will help you decide how hot, cold, wet, or windy it might be!

Date:

Astronomy

Apr. 23, 2013 Rise Set
Actual Time 6:42 AM EDT 8:24 PM EDT
Civil Twilight 6:13 AM EDT 8:54 PM EDT
Nautical Twilight 5:37 AM EDT 9:30 PM EDT
Astronomical Twilight 4:59 AM EDT 10:08 PM EDT
Moon 6:17 PM EDT 5:12 AM EDT
Length of Visible Light 14h 40m
Length of Day
13h 41m
Waxing Gibbous, 94% of the Moon is Illuminated
Apr 23
Waxing Gibbous
Apr 25
Full
May 2
Last Quarter
May 9
New
May 18
First Quarter

Hourly Weather History & Observations

Time (EDT) Temp. Windchill Dew Point Humidity Pressure Visibility Wind Dir Wind Speed Gust Speed Precip Events Conditions
12:52 AM 43.0 °F 40.3 °F 34.0 °F 71% 30.17 in 10.0 mi East 4.6 mph - N/A   Clear
1:52 AM 43.0 °F - 34.0 °F 71% 30.16 in 10.0 mi Calm Calm - N/A   Clear
2:52 AM 43.0 °F - 34.0 °F 71% 30.14 in 10.0 mi Calm Calm - N/A   Clear
3:52 AM 42.1 °F - 34.0 °F 73% 30.12 in 10.0 mi Calm Calm - N/A   Clear
4:52 AM 39.9 °F 36.7 °F 33.1 °F 77% 30.11 in 10.0 mi SE 4.6 mph - N/A   Clear
5:52 AM 45.0 °F 43.5 °F 30.9 °F 58% 30.09 in 10.0 mi SSE 3.5 mph - N/A   Clear
6:52 AM 46.9 °F - 30.9 °F 54% 30.09 in 10.0 mi SSE 6.9 mph - N/A   Clear
7:52 AM 48.0 °F - 30.0 °F 50% 30.10 in 10.0 mi South 5.8 mph - N/A   Clear
8:52 AM 53.1 °F - 32.0 °F 45% 30.09 in 10.0 mi South 8.1 mph - N/A   Clear
9:52 AM 57.9 °F - 34.0 °F 41% 30.08 in 10.0 mi South 10.4 mph 17.3 mph N/A   Clear
10:52 AM 63.0 °F - 36.0 °F 37% 30.05 in 10.0 mi SSE 8.1 mph 16.1 mph N/A   Clear
11:52 AM 68.0 °F - 37.9 °F 33% 30.04 in 10.0 mi South 12.7 mph 19.6 mph N/A   Clear
12:52 PM 71.1 °F - 37.9 °F 30% 30.01 in 10.0 mi South 10.4 mph 21.9 mph N/A   Partly Cloudy
1:52 PM 70.0 °F - 37.0 °F 30% 29.97 in 10.0 mi SSW 18.4 mph 25.3 mph N/A   Partly Cloudy
2:52 PM 71.1 °F - 37.9 °F 30% 29.94 in 10.0 mi South 17.3 mph 25.3 mph N/A   Partly Cloudy
3:52 PM 71.1 °F - 39.9 °F 32% 29.92 in 10.0 mi SSW 16.1 mph 24.2 mph N/A   Scattered Clouds
4:52 PM 69.1 °F - 43.0 °F 39% 29.91 in 10.0 mi South 11.5 mph 24.2 mph N/A   Overcast
5:52 PM 61.0 °F - 51.1 °F 70% 29.90 in 7.0 mi SW 8.1 mph 21.9 mph 0.02 in Rain Light Rain
6:39 PM 59.0 °F - 53.6 °F 82% 29.92 in 1.8 mi WSW 20.7 mph 27.6 mph 0.06 in Rain Heavy Rain
6:52 PM 57.0 °F - 54.0 °F 89% 29.93 in 3.0 mi WSW 18.4 mph 23.0 mph 0.14 in Rain Rain
7:19 PM 57.2 °F - 53.6 °F 88% 29.90 in 9.0 mi WSW 9.2 mph - 0.03 in Rain Light Rain
7:52 PM 57.0 °F - 53.1 °F 87% 29.90 in 10.0 mi SW 4.6 mph - 0.03 in   Overcast
8:52 PM 55.9 °F - 54.0 °F 93% 29.89 in 6.0 mi Calm Calm - 0.02 in Rain Light Rain
9:52 PM 55.0 °F - 54.0 °F 96% 29.86 in 4.0 mi SE 3.5 mph - 0.03 in Rain Light Rain
10:49 PM 55.4 °F - 53.6 °F 94% 29.84 in 2.5 mi Calm Calm - 0.04 in Rain Light Rain
10:52 PM 55.0 °F - 54.0 °F 96% 29.84 in 2.5 mi Calm Calm - 0.04 in Rain Light Rain
10:59 PM 55.4 °F - 53.6 °F 94% 29.84 in 3.0 mi Calm Calm - 0.00 in Rain Light Rain
11:52 PM 55.0 °F - 54.0 °F 96% 29.81 in 3.0 mi SE 4.6 mph - 0.02 in Rain Light Rain